AP893 Weather Reports


Display with metric or nautical units.
time (UTC)temp
F
wind
direction
speed
MPH
gust
MPH
rain 1hr
in
rain 24hr
in
rain mn
in
humidity
%
barometer
mb
20260901201009 77 295 1.0 9.0 0.00 0.00 0.00 28 1018.8
20260901200011 76 341 1.0 8.0 0.00 0.00 0.00 28 1019.0
20260901193009 76 312 1.0 7.0 0.00 0.00 0.00 29 1019.2
20260901192009 75 13 0.0 9.0 0.00 0.00 0.00 29 1019.2
20260901191009 74 185 1.0 9.0 0.00 0.00 0.00 31 1019.2
20260901185010 71 250 2.0 9.0 0.00 0.00 0.00 44 1019.3
20260901184009 71 16 3.0 9.0 0.00 0.00 0.00 46 1019.2
20260901182010 68 354 2.0 9.0 0.00 0.00 0.00 51 1019.2
20260901181009 67 221 2.0 12.0 0.00 0.00 0.00 54 1019.2
20260901180009 66 335 0.0 10.0 0.00 0.00 0.00 56 1019.1
20260901175010 65 326 2.0 12.0 0.00 0.00 0.00 58 1019.2
20260901174010 64 1 8.0 13.0 0.00 0.00 0.00 60 1019.0
20260901173010 63 1 2.0 13.0 0.00 0.00 0.00 62 1018.9
20260901172010 63 41 3.0 8.0 0.00 0.00 0.00 63 1018.9
20260901170011 62 328 6.0 14.0 0.00 0.00 0.00 64 1018.8
20260901165009 61 353 5.0 13.0 0.00 0.00 0.00 64 1018.6
20260901163009 61 313 1.0 8.0 0.00 0.00 0.00 65 1018.4
20260901162009 61 351 2.0 7.0 0.00 0.00 0.00 64 1018.2
20260901160009 61 0 0.0 5.0 0.00 0.00 0.00 68 1018.1
20260901155010 59 357 0.0 6.0 0.00 0.00 0.00 72 1018.0
20260901153010 58 86 0.0 0.0 0.00 0.00 0.00 77 1017.5
20260901150009 55 86 0.0 0.0 0.00 0.00 0.00 90 1017.3
20260901145010 54 86 0.0 0.0 0.00 0.00 0.00 92 1017.3
20260901144009 53 86 0.0 0.0 0.00 0.00 0.00 94 1017.2
20260901143009 52 86 0.0 0.0 0.00 0.00 0.00 94 1017.2
20260901142009 51 86 0.0 0.0 0.00 0.00 0.00 92 1017.1
20260901141010 51 86 0.0 0.0 0.00 0.00 0.00 92 1017.1
20260901135010 51 86 0.0 0.0 0.00 0.00 0.00 90 1017.0
20260901134009 52 86 0.0 0.0 0.00 0.00 0.00 88 1017.0
20260901132009 52 86 0.0 0.0 0.00 0.00 0.00 83 1016.8
20260901131010 52 86 0.0 0.0 0.00 0.00 0.00 77 1016.9
20260901130009 53 86 0.0 0.0 0.00 0.00 0.00 73 1016.8
20260901125012 52 86 0.0 0.0 0.00 0.00 0.00 72 1016.4
20260901124009 52 86 0.0 5.0 0.00 0.00 0.00 74 1016.2
20260901122009 52 104 0.0 0.0 0.00 0.00 0.00 73 1016.2
20260901121009 52 104 0.0 0.0 0.00 0.00 0.00 72 1016.2
20260901120009 52 104 0.0 0.0 0.00 0.00 0.00 72 1016.2
20260901114009 53 113 1.0 3.0 0.00 0.00 0.00 72 1016.2
20260901113009 53 89 0.0 0.0 0.00 0.00 0.00 72 1016.2
20260901112009 53 89 0.0 0.0 0.00 0.00 0.00 72 1016.2
20260901111009 53 89 0.0 0.0 0.00 0.00 0.00 71 1016.0
20260901110010 53 89 0.0 0.0 0.00 0.00 0.00 71 1015.9
20260901105009 54 89 0.0 0.0 0.00 0.00 0.00 72 1015.9
20260901103009 54 89 0.0 0.0 0.00 0.00 0.00 71 1016.1
20260901101010 54 89 0.0 0.0 0.00 0.00 0.00 70 1016.1
20260901100009 55 89 0.0 0.0 0.00 0.00 0.00 69 1016.1
20260901095010 55 89 0.0 0.0 0.00 0.00 0.00 70 1016.2
20260901094010 55 89 0.0 0.0 0.00 0.00 0.00 69 1016.3
20260901093009 56 89 0.0 0.0 0.00 0.00 0.00 68 1016.3
20260901092010 56 89 0.0 0.0 0.00 0.00 0.00 67 1016.3
20260901091010 56 89 0.0 0.0 0.00 0.00 0.00 67 1016.3
20260901090009 56 89 0.0 5.0 0.00 0.00 0.00 67 1016.3
20260901085010 56 140 0.0 0.0 0.00 0.00 0.00 69 1016.4
20260901083010 56 140 0.0 0.0 0.00 0.00 0.00 68 1016.6
20260901082009 56 140 0.0 0.0 0.00 0.00 0.00 68 1016.7
20260901081010 56 140 0.0 0.0 0.00 0.00 0.00 68 1016.8
20260901080009 56 140 0.0 0.0 0.00 0.00 0.00 67 1016.9
20260901075010 57 140 0.0 0.0 0.00 0.00 0.00 65 1016.9
20260901074009 57 140 0.0 0.0 0.00 0.00 0.00 64 1016.9
20260901073010 57 140 0.0 0.0 0.00 0.00 0.00 63 1016.9
20260901072009 57 140 0.0 0.0 0.00 0.00 0.00 63 1016.8
20260901071010 57 140 0.0 0.0 0.00 0.00 0.00 63 1016.8
20260901070010 57 140 0.0 3.0 0.00 0.00 0.00 63 1016.7
20260901065010 57 224 1.0 3.0 0.00 0.00 0.00 62 1016.6
20260901064010 58 215 0.0 0.0 0.00 0.00 0.00 61 1016.6
20260901063010 58 215 0.0 0.0 0.00 0.00 0.00 61 1016.4
20260901062009 58 215 0.0 0.0 0.00 0.00 0.00 60 1016.4
20260901060009 59 215 0.0 0.0 0.00 0.00 0.00 59 1016.6
20260901055009 59 215 0.0 0.0 0.00 0.00 0.00 57 1016.6
20260901053010 61 215 0.0 0.0 0.00 0.00 0.00 54 1016.8
20260901051009 62 215 0.0 0.0 0.00 0.00 0.00 53 1016.9
20260901050009 63 215 0.0 0.0 0.00 0.00 0.00 51 1016.8
20260901045010 63 215 0.0 0.0 0.00 0.00 0.00 50 1016.8
20260901044010 64 215 0.0 0.0 0.00 0.00 0.00 47 1016.7
20260901043010 65 215 0.0 0.0 0.00 0.00 0.00 45 1016.7
20260901042009 66 215 0.0 0.0 0.00 0.00 0.00 44 1016.6
20260901040009 67 215 0.0 0.0 0.00 0.00 0.00 42 1016.4
20260901035010 67 215 0.0 0.0 0.00 0.00 0.00 41 1016.3
20260901034009 68 215 0.0 0.0 0.00 0.00 0.00 40 1016.2
20260901033010 69 215 0.0 0.0 0.00 0.00 0.00 39 1016.3
20260901032010 70 215 0.0 0.0 0.00 0.00 0.00 38 1016.2
20260901030009 71 215 0.0 0.0 0.00 0.00 0.00 36 1016.0
20260901025009 72 215 0.0 0.0 0.00 0.00 0.00 34 1016.0
20260901024009 73 215 0.0 0.0 0.00 0.00 0.00 33 1016.0
20260901023009 74 215 0.0 0.0 0.00 0.00 0.00 32 1015.9
20260901021010 76 215 0.0 0.0 0.00 0.00 0.00 30 1016.0
20260901020010 76 215 0.0 0.0 0.00 0.00 0.00 29 1016.1
20260901015010 77 215 0.0 0.0 0.00 0.00 0.00 28 1016.2
20260901014010 77 215 0.0 5.0 0.00 0.00 0.00 28 1016.1
20260901013009 78 248 0.0 6.0 0.00 0.00 0.00 27 1016.1
20260901012009 78 249 1.0 5.0 0.00 0.00 0.00 27 1016.2
20260901011010 79 287 0.0 3.0 0.00 0.00 0.00 26 1016.2
20260901010009 80 229 1.0 7.0 0.00 0.00 0.00 25 1016.3
20260901005009 81 305 0.0 5.0 0.00 0.00 0.00 23 1016.1
20260901004010 82 16 0.0 2.0 0.00 0.00 0.00 22 1016.1
20260901003009 82 207 0.0 7.0 0.00 0.00 0.00 21 1016.2
20260901002009 82 254 0.0 3.0 0.00 0.00 0.00 21 1016.2
20260901001009 83 237 3.0 9.0 0.00 0.00 0.00 19 1016.4
20260901000009 83 103 0.0 6.0 0.00 0.00 0.00 19 1016.4
20260831235009 84 262 2.0 9.0 0.00 0.00 0.00 18 1016.3
20260831233009 83 280 0.0 7.0 0.00 0.00 0.00 19 1016.4
20260831230009 83 289 0.0 5.0 0.00 0.00 0.00 20 1016.4
20260831225010 83 318 1.0 8.0 0.00 0.00 0.00 21 1016.6
20260831224009 83 303 2.0 10.0 0.00 0.00 0.00 22 1016.8
20260831222010 82 272 0.0 6.0 0.00 0.00 0.00 22 1016.9
20260831221010 83 303 2.0 9.0 0.00 0.00 0.00 22 1017.0
20260831220010 83 220 3.0 9.0 0.00 0.00 0.00 21 1016.9
20260831215009 83 343 4.0 9.0 0.00 0.00 0.00 21 1016.8
20260831213010 82 292 3.0 10.0 0.00 0.00 0.00 24 1016.9
20260831211010 82 318 5.0 9.0 0.00 0.00 0.00 25 1017.1
20260831210010 83 339 3.0 12.0 0.00 0.00 0.00 25 1017.0
20260831205009 84 1 2.0 9.0 0.00 0.00 0.00 24 1016.9
20260831204011 84 325 3.0 9.0 0.00 0.00 0.00 24 1016.9
20260831203010 84 358 2.0 10.0 0.00 0.00 0.00 24 1016.9
20260831202009 85 289 5.0 12.0 0.00 0.00 0.00 23 1016.9